Time,TemperatureF,DewpointF,PressureIn,WindDirection,WindDirectionDegrees,WindSpeedMPH,WindSpeedGustMPH,Humidity,HourlyPrecipIn,Conditions,Clouds,dailyrainin,SoftwareType,DateUTC
2013-08-17 11:36:00,74.0,60.2,30.09,SE,134,3.0,4.0,62,0.00,,,0.00,Wunderground v.1.15,2013-08-17 16:36:00,
2013-08-17 12:01:00,73.8,59.5,30.09,West,266,3.0,3.0,61,0.00,,,0.00,Wunderground v.1.15,2013-08-17 17:01:00,
2013-08-17 12:11:00,73.5,59.7,30.09,WNW,285,3.0,3.0,62,0.00,,,0.00,Wunderground v.1.15,2013-08-17 17:11:00,
2013-08-17 12:21:00,73.1,58.8,30.09,ENE,76,2.0,2.0,61,0.00,,,0.00,Wunderground v.1.15,2013-08-17 17:21:00,
2013-08-17 12:25:00,73.3,59.0,30.09,SSW,210,3.0,4.0,61,0.00,,,0.00,Wunderground v.1.15,2013-08-17 17:25:00,
2013-08-17 12:31:00,74.0,60.6,30.09,NW,316,3.0,3.0,63,0.00,,,0.00,Wunderground v.1.15,2013-08-17 17:31:00,
2013-08-17 12:36:00,74.4,60.1,30.09,West,273,3.0,3.0,61,0.00,,,0.00,Wunderground v.1.15,2013-08-17 17:36:00,
2013-08-17 12:45:00,75.0,59.7,30.09,West,276,3.0,4.0,59,0.00,,,0.00,Wunderground v.1.15,2013-08-17 17:45:00,
2013-08-17 12:51:00,75.0,59.2,30.08,WSW,245,3.0,3.0,58,0.00,,,0.00,Wunderground v.1.15,2013-08-17 17:51:00,
2013-08-17 13:01:00,75.0,60.2,30.08,WNW,300,3.0,5.0,60,0.00,,,0.00,Wunderground v.1.15,2013-08-17 18:01:00,
2013-08-17 13:11:00,74.9,59.6,30.08,West,262,3.0,3.0,59,0.00,,,0.00,Wunderground v.1.15,2013-08-17 18:11:00,
2013-08-17 13:21:00,75.8,61.4,30.08,NW,309,3.0,3.0,61,0.00,,,0.00,Wunderground v.1.15,2013-08-17 18:21:00,
2013-08-17 13:31:00,76.5,60.6,30.08,NNW,335,3.0,3.0,58,0.00,,,0.00,Wunderground v.1.15,2013-08-17 18:31:00,
2013-08-17 13:41:00,76.2,58.9,30.08,West,276,3.0,3.0,55,0.00,,,0.00,Wunderground v.1.15,2013-08-17 18:41:00,
2013-08-17 13:51:00,75.7,59.9,30.07,WSW,256,2.0,2.0,58,0.00,,,0.00,Wunderground v.1.15,2013-08-17 18:51:00,
2013-08-17 14:01:00,76.4,58.0,30.07,SW,222,2.0,4.0,53,0.00,,,0.00,Wunderground v.1.15,2013-08-17 19:01:00,
2013-08-17 14:10:00,75.9,58.1,30.07,SSE,166,2.0,2.0,54,0.00,,,0.00,Wunderground v.1.15,2013-08-17 19:10:00,
2013-08-17 14:16:00,76.4,58.0,30.07,WNW,285,2.0,2.0,53,0.00,,,0.00,Wunderground v.1.15,2013-08-17 19:16:00,
2013-08-17 14:26:00,76.7,58.3,30.07,WSW,258,3.0,3.0,53,0.00,,,0.00,Wunderground v.1.15,2013-08-17 19:26:00,
2013-08-17 14:36:00,77.6,60.7,30.06,West,260,2.0,3.0,56,0.00,,,0.00,Wunderground v.1.15,2013-08-17 19:36:00,
2013-08-17 14:41:00,76.7,59.3,30.06,WNW,295,3.0,3.0,55,0.00,,,0.00,Wunderground v.1.15,2013-08-17 19:41:00,
2013-08-17 14:51:00,76.3,57.4,30.05,NW,325,2.0,3.0,52,0.00,,,0.00,Wunderground v.1.15,2013-08-17 19:51:00,
2013-08-17 15:01:00,77.1,57.0,30.05,WNW,283,2.0,3.0,50,0.00,,,0.00,Wunderground v.1.15,2013-08-17 20:01:00,
2013-08-17 15:11:00,77.6,58.0,30.05,WNW,288,2.0,4.0,51,0.00,,,0.00,Wunderground v.1.15,2013-08-17 20:11:00,
2013-08-17 15:21:00,77.3,57.2,30.05,WSW,255,2.0,3.0,50,0.00,,,0.00,Wunderground v.1.15,2013-08-17 20:21:00,
2013-08-17 15:31:00,77.0,58.6,30.05,NW,314,2.0,2.0,53,0.00,,,0.00,Wunderground v.1.15,2013-08-17 20:31:00,
2013-08-17 15:41:00,77.5,57.4,30.04,SW,228,2.0,3.0,50,0.00,,,0.00,Wunderground v.1.15,2013-08-17 20:41:00,
2013-08-17 15:50:00,77.4,57.3,30.04,West,262,2.0,3.0,50,0.00,,,0.00,Wunderground v.1.15,2013-08-17 20:50:00,
2013-08-17 15:56:00,77.4,56.2,30.03,WSW,247,3.0,3.0,48,0.00,,,0.00,Wunderground v.1.15,2013-08-17 20:56:00,
2013-08-17 16:01:00,77.7,58.7,30.03,West,262,2.0,2.0,52,0.00,,,0.00,Wunderground v.1.15,2013-08-17 21:01:00,
2013-08-17 16:06:00,77.9,58.3,30.03,NW,310,2.0,4.0,51,0.00,,,0.00,Wunderground v.1.15,2013-08-17 21:06:00,